Time [yyyy-MM-dd HH:mm:ss],His file time series [-]
15-Jan-07 01:00:00,-0.460000038146973
15-Jan-07 02:00:00,1.30094075202942
15-Jan-07 03:00:00,1.72483170032501
15-Jan-07 04:00:00,1.79774296283722
15-Jan-07 05:00:00,1.81798815727234
15-Jan-07 06:00:00,1.82631838321686
15-Jan-07 07:00:00,1.83048796653748
15-Jan-07 08:00:00,1.83240985870361
15-Jan-07 09:00:00,1.83311700820923
15-Jan-07 10:00:00,1.83318114280701
15-Jan-07 11:00:00,1.83291757106781
15-Jan-07 12:00:00,1.83252561092377
15-Jan-07 13:00:00,1.83211052417755
15-Jan-07 14:00:00,1.83172154426575
15-Jan-07 15:00:00,1.83137857913971
15-Jan-07 16:00:00,1.83108735084534
15-Jan-07 17:00:00,1.830845952034
15-Jan-07 18:00:00,1.83064949512482
15-Jan-07 19:00:00,1.83049166202545
15-Jan-07 20:00:00,1.83036613464355
15-Jan-07 21:00:00,1.83026731014252
15-Jan-07 22:00:00,1.8301899433136
15-Jan-07 23:00:00,1.83012974262238
16-Jan-07 00:00:00,1.83008325099945
16-Jan-07 01:00:00,1.8300473690033
16-Jan-07 02:00:00,1.83001983165741
16-Jan-07 03:00:00,1.82999885082245
16-Jan-07 04:00:00,1.82998275756836
16-Jan-07 05:00:00,1.82997059822083
16-Jan-07 06:00:00,1.82996129989624
16-Jan-07 07:00:00,1.82995426654816
16-Jan-07 08:00:00,1.82994902133942
16-Jan-07 09:00:00,1.82994496822357
16-Jan-07 10:00:00,1.82994198799133
16-Jan-07 11:00:00,1.82993972301483
16-Jan-07 12:00:00,1.82993805408478
16-Jan-07 13:00:00,1.82993674278259
16-Jan-07 14:00:00,1.82993578910828
16-Jan-07 15:00:00,1.82993507385254
16-Jan-07 16:00:00,1.82993459701538
16-Jan-07 17:00:00,1.82993412017822
16-Jan-07 18:00:00,1.82993388175964
16-Jan-07 19:00:00,1.82993364334106
16-Jan-07 20:00:00,1.82993340492249
16-Jan-07 21:00:00,1.8299332857132
16-Jan-07 22:00:00,1.8299332857132
16-Jan-07 23:00:00,1.82993316650391
17-Jan-07 00:00:00,1.82993316650391
17-Jan-07 01:00:00,1.82993304729462
